EN

Hourly Weather Kyzylkayyn

Today, 6 August, Friday

Time Temperature Precipitation Wind Pressure Humidity
00:00 +20°C° 0 mm 3 mps 709 mmHg 46%
01:00 +20°C° 0 mm 3 mps 708 mmHg 47%
02:00 +19°C° 0 mm 2 mps 708 mmHg 48%
03:00 +19°C° 0 mm 2 mps 708 mmHg 47%
04:00 +19°C° 0 mm 2 mps 709 mmHg 47%
05:00 +19°C° 0 mm 2 mps 709 mmHg 47%
06:00 +21°C° 0 mm 2 mps 709 mmHg 40%
07:00 +25°C° 0 mm 3 mps 710 mmHg 34%
08:00 +27°C° 0 mm 3 mps 710 mmHg 28%
09:00 +29°C° 0 mm 4 mps 710 mmHg 25%
10:00 +30°C° 0 mm 4 mps 710 mmHg 23%
11:00 +33°C° 0 mm 5 mps 710 mmHg 21%
12:00 +33°C° 0 mm 5 mps 710 mmHg 20%
13:00 +34°C° 0 mm 5 mps 709 mmHg 19%
14:00 +34°C° 0 mm 5 mps 709 mmHg 18%
15:00 +34°C° 0 mm 5 mps 709 mmHg 18%
16:00 +33°C° 0 mm 5 mps 709 mmHg 17%
17:00 +33°C° 0 mm 5 mps 709 mmHg 17%
18:00 +29°C° 0 mm 4 mps 709 mmHg 21%
19:00 +27°C° 0 mm 4 mps 709 mmHg 25%
20:00 +24°C° 0 mm 3 mps 709 mmHg 29%
21:00 +22°C° 0 mm 3 mps 709 mmHg 32%
22:00 +21°C° 0 mm 3 mps 709 mmHg 34%
23:00 +20°C° 0 mm 3 mps 710 mmHg 37%

Tomorrow, 7 August, Saturday

Time Temperature Precipitation Wind Pressure Humidity
00:00 +19°C° 0 mm 2 mps 709 mmHg 39%
01:00 +19°C° 0 mm 2 mps 709 mmHg 40%
02:00 +18°C° 0 mm 2 mps 709 mmHg 42%
03:00 +18°C° 0 mm 2 mps 709 mmHg 42%
04:00 +19°C° 0 mm 1 mps 709 mmHg 43%
05:00 +19°C° 0 mm 1 mps 709 mmHg 43%
06:00 +22°C° 0 mm 1 mps 710 mmHg 38%
07:00 +24°C° 0 mm 1 mps 710 mmHg 33%
08:00 +27°C° 0 mm 2 mps 710 mmHg 27%
09:00 +29°C° 0 mm 2 mps 710 mmHg 24%
10:00 +30°C° 0 mm 3 mps 710 mmHg 21%
11:00 +33°C° 0 mm 3 mps 710 mmHg 18%
12:00 +34°C° 0 mm 3 mps 709 mmHg 16%
13:00 +34°C° 0 mm 3 mps 709 mmHg 15%
14:00 +35°C° 0 mm 4 mps 709 mmHg 14%
15:00 +35°C° 0 mm 3 mps 709 mmHg 13%
16:00 +35°C° 0 mm 3 mps 709 mmHg 13%
17:00 +35°C° 0 mm 3 mps 709 mmHg 13%
18:00 +31°C° 0 mm 3 mps 709 mmHg 16%
19:00 +28°C° 0 mm 2 mps 708 mmHg 19%
20:00 +25°C° 0 mm 2 mps 708 mmHg 21%
21:00 +24°C° 0 mm 2 mps 708 mmHg 23%
22:00 +24°C° 0 mm 3 mps 708 mmHg 25%
23:00 +22°C° 0 mm 3 mps 708 mmHg 26%

Day after tomorrow, 8 August, Sunday

Time Temperature Precipitation Wind Pressure Humidity
00:00 +21°C° 0 mm 3 mps 708 mmHg 28%
01:00 +20°C° 0 mm 2 mps 708 mmHg 30%
02:00 +20°C° 0 mm 2 mps 708 mmHg 32%
03:00 +20°C° 0 mm 2 mps 708 mmHg 33%
04:00 +20°C° 0 mm 2 mps 708 mmHg 33%
05:00 +20°C° 0 mm 3 mps 709 mmHg 34%
06:00 +24°C° 0 mm 2 mps 709 mmHg 28%
07:00 +28°C° 0 mm 2 mps 709 mmHg 22%
08:00 +31°C° 0 mm 2 mps 710 mmHg 17%
09:00 +34°C° 0 mm 3 mps 709 mmHg 15%
10:00 +35°C° 0 mm 4 mps 709 mmHg 13%
11:00 +37°C° 0 mm 5 mps 709 mmHg 11%
12:00 +39°C° 0 mm 5 mps 709 mmHg 11%
13:00 +39°C° 0 mm 6 mps 709 mmHg 10%
14:00 +40°C° 0 mm 6 mps 709 mmHg 9%
15:00 +39°C° 0 mm 6 mps 709 mmHg 10%
16:00 +38°C° 0 mm 6 mps 709 mmHg 11%
17:00 +37°C° 0 mm 5 mps 709 mmHg 12%
18:00 +34°C° 0 mm 4 mps 708 mmHg 16%
19:00 +30°C° 0 mm 3 mps 708 mmHg 20%
20:00 +26°C° 0 mm 1 mps 708 mmHg 24%
21:00 +26°C° 0 mm 2 mps 707 mmHg 23%
22:00 +26°C° 0 mm 3 mps 707 mmHg 22%
23:00 +26°C° 0 mm 4 mps 706 mmHg 21%

9 August, Monday

Time Temperature Precipitation Wind Pressure Humidity
00:00 +26°C° 0 mm 4 mps 706 mmHg 21%
01:00 +26°C° 0 mm 4 mps 706 mmHg 20%
02:00 +26°C° 0 mm 3 mps 705 mmHg 20%
03:00 +25°C° 0 mm 3 mps 706 mmHg 21%
04:00 +25°C° 0 mm 4 mps 706 mmHg 22%
05:00 +25°C° 0 mm 4 mps 707 mmHg 22%
06:00 +27°C° 0 mm 5 mps 708 mmHg 24%
07:00 +29°C° 0 mm 6 mps 708 mmHg 25%
08:00 +30°C° 0 mm 7 mps 709 mmHg 27%
09:00 +32°C° 0.1 mm 7 mps 709 mmHg 24%
10:00 +33°C° 0.1 mm 8 mps 709 mmHg 22%
11:00 +34°C° 0.1 mm 8 mps 709 mmHg 20%
12:00 +35°C° 0 mm 8 mps 709 mmHg 19%
13:00 +37°C° 0 mm 8 mps 709 mmHg 18%
14:00 +36°C° 0 mm 7 mps 708 mmHg 17%
15:00 +37°C° 0 mm 8 mps 709 mmHg 17%
16:00 +35°C° 0 mm 9 mps 709 mmHg 17%
17:00 +34°C° 0 mm 9 mps 709 mmHg 17%
18:00 +30°C° 0.1 mm 7 mps 709 mmHg 21%
19:00 +27°C° 0.1 mm 5 mps 710 mmHg 24%
20:00 +24°C° 0.1 mm 3 mps 710 mmHg 28%
21:00 +22°C° 0 mm 3 mps 710 mmHg 31%
22:00 +21°C° 0 mm 3 mps 710 mmHg 34%
23:00 +20°C° 0 mm 3 mps 710 mmHg 36%

10 August, Tuesday

Time Temperature Precipitation Wind Pressure Humidity
00:00 +20°C° 0 mm 3 mps 710 mmHg 37%
01:00 +19°C° 0 mm 3 mps 709 mmHg 38%
02:00 +19°C° 0 mm 2 mps 709 mmHg 38%
03:00 +19°C° 0 mm 2 mps 709 mmHg 39%
04:00 +19°C° 0 mm 2 mps 709 mmHg 39%
05:00 +19°C° 0 mm 2 mps 710 mmHg 40%
06:00 +21°C° 0 mm 2 mps 710 mmHg 35%
07:00 +24°C° 0 mm 2 mps 710 mmHg 31%
08:00 +27°C° 0 mm 2 mps 711 mmHg 27%
09:00 +28°C° 0 mm 3 mps 711 mmHg 24%
10:00 +30°C° 0 mm 4 mps 711 mmHg 22%
11:00 +33°C° 0 mm 5 mps 711 mmHg 19%
12:00 +33°C° 0 mm 5 mps 711 mmHg 19%
13:00 +33°C° 0 mm 5 mps 711 mmHg 19%
14:00 +33°C° 0 mm 5 mps 711 mmHg 18%
15:00 +33°C° 0 mm 6 mps 711 mmHg 18%
16:00 +32°C° 0 mm 6 mps 711 mmHg 19%
17:00 +32°C° 0 mm 7 mps 711 mmHg 19%
18:00 +28°C° 0 mm 5 mps 711 mmHg 22%
19:00 +26°C° 0 mm 3 mps 711 mmHg 25%
20:00 +23°C° 0 mm 2 mps 711 mmHg 29%
21:00 +21°C° 0 mm 2 mps 711 mmHg 30%
22:00 +20°C° 0 mm 2 mps 711 mmHg 32%
23:00 +20°C° 0 mm 2 mps 711 mmHg 34%

11 August, Wednesday

Time Temperature Precipitation Wind Pressure Humidity
00:00 +19°C° 0 mm 2 mps 711 mmHg 35%
01:00 +19°C° 0 mm 2 mps 711 mmHg 36%
02:00 +19°C° 0 mm 2 mps 710 mmHg 37%
03:00 +19°C° 0 mm 2 mps 710 mmHg 37%
04:00 +19°C° 0 mm 2 mps 710 mmHg 37%
05:00 +19°C° 0 mm 2 mps 710 mmHg 37%
06:00 +23°C° 0 mm 2 mps 711 mmHg 32%
07:00 +26°C° 0 mm 2 mps 711 mmHg 27%
08:00 +28°C° 0 mm 2 mps 711 mmHg 22%
09:00 +30°C° 0 mm 2 mps 711 mmHg 20%
10:00 +31°C° 0 mm 3 mps 711 mmHg 18%
11:00 +34°C° 0 mm 3 mps 711 mmHg 17%
12:00 +34°C° 0 mm 3 mps 711 mmHg 16%
13:00 +35°C° 0 mm 4 mps 710 mmHg 16%
14:00 +36°C° 0 mm 4 mps 710 mmHg 15%
15:00 +35°C° 0 mm 4 mps 710 mmHg 15%
16:00 +35°C° 0 mm 4 mps 710 mmHg 16%
17:00 +35°C° 0 mm 5 mps 710 mmHg 16%
18:00 +32°C° 0 mm 4 mps 710 mmHg 21%
19:00 +28°C° 0 mm 4 mps 710 mmHg 26%
20:00 +26°C° 0 mm 3 mps 710 mmHg 31%
21:00 +25°C° 0 mm 3 mps 710 mmHg 33%
22:00 +24°C° 0 mm 3 mps 710 mmHg 34%
23:00 +23°C° 0 mm 2 mps 710 mmHg 35%
Show more